FENGYUN 1C DEB, 37079

Orbit data source: Space-Track

FENGYUN 1C DEB, 37079 is space debris in SSO originally from a launch on Mon, 10 May 1999 UTC launched from the Taiyaun Space Center, China (TSC). Fengyun 1C debris stems from the Chinese weather satellite Fengyun-1C, which was intentionally destroyed by a Chinese anti-satellite missile in 2007. This event dramatically increased the amount of space debris, with thousands of trackable fragments posing hazards to satellites and human spaceflight. The Fengyun 1C debris cloud has become a focal point in discussions about space sustainability and the need for international regulations to prevent the creation of new debris.

Loading next visibility...
Identifier
37079, 1999-025EFP
Orbit
SSO
Country
Flag of CNCN / PRC
Related business
Manufacturer
Unknown
Mission
Spacecraft
Bus & Motor
Unknown
Mass
Unknown
Launch date (UTC)
1999-05-10 (27 years ago)
Launch vehicle
Unknown
Launch site
Taiyaun Space Center, China (TSC)
Object type
Payload
Rocket body
Debris
Shape & HBR
Unknown shape, 0.1 m
Radar Cross Section
Small (<0.1 m²)

Expand to show TLE details & history
Last TLE update: 1 day ago

TLE from 1 day ago
0 FENGYUN 1C DEB
1 37079U 99025EFP 26208.23596279  .00016352  00000-0  28721-2 0  9991
2 37079  98.8642   5.2888 0012255 160.1396 200.0286 14.67711342679306
Epoch: 2026-07-27T05:39Z
TLE epoch observation values (Epoch: 2026-07-27T05:39:47.185Z)
Latitude
0.00004°
Longitude
-24.58025°
Altitude
679.474 km
Speed
7.513 km/s
True Right ascension
00h 21m 09s
True Declination
0° 00' 00"
Sunlit
Object was in full shadow at epoch
Visualization orbit readout
Latitude
Unknown
Longitude
Unknown
Altitude
Unknown
Speed
Unknown
Apparent Right ascension
Unknown
Apparent Declination
Unknown
Sunlit
N/A
Visualization observer readout
Local Sidereal Time
03:15:19
Azimuth
Unknown
Elevation
Unknown
Doppler factor
Unknown
Orbital elements
Apogee altitude
674.119 km
Perigee altitude
656.855 km
Semi-major axis
7,043.624 km
Eccentricity
0.00123
Inclination
98.8642°
RAAN
5.2888°
Arg. of periapsis
160.1396°
True anomaly
199.98057°
Mean anomaly
200.0286°
Eccentric anomaly
200.00458°
Mean motion
3.67155 °/min
Orbital period
98.05 mins
BSTAR
0.0028721
Loading maneuver chart data...
Computing Atmospheric mass density...

Documentation

Showing up to 5 results
|